Weather History for Sharm El Sheikh, Egypt

Change the Weather History Date:

Monday, December 30, 2013

  Actual Average Record
Temperature  
Mean Temperature 65 °F -  
Max Temperature 75 °F - - ()
Min Temperature 55 °F - - ()
Growing Degree Days 15 (Base 50)    
Moisture  
Dew Point 34 °F    
Average Humidity 33    
Maximum Humidity 42    
Minimum Humidity 24    
Precipitation  
Precipitation 0.00 in - - ()
Sea Level Pressure  
Sea Level Pressure 29.97 in    
Wind  
Wind Speed 3 mph ()    
Max Wind Speed 8 mph    
Max Gust Speed -    
Visibility 6.2 miles    
Events      
T = Trace of Precipitation, MM = Missing Value Source: Averaged Metar Reports

Daily Weather History Graph

Daily Weather History Graph

Search for Another Location

Airport:

Trip Planner

Search our weather history database for the weather conditions in past years. The results will help you decide how hot, cold, wet, or windy it might be!

Date:

Astronomy

Dec. 30, 2013 Rise Set
Actual Time 6:33 AM EET 4:56 PM EET
Civil Twilight 6:07 AM EET 5:22 PM EET
Nautical Twilight 5:38 AM EET 5:51 PM EET
Astronomical Twilight 5:09 AM EET 6:20 PM EET
Moon 4:05 AM EET (12/30) 3:05 PM EET (12/30)
Length of Visible Light 11h 15m
Length of Day
10h 23m
Waning Crescent, 6% of the Moon is Illuminated
Dec 30
Waning Crescent
Jan 1
New
Jan 8
First Quarter
Jan 16
Full
Jan 24
Last Quarter

Hourly Weather History & Observations

Time (EET) Temp. Dew Point Humidity Pressure Visibility Wind Dir Wind Speed Gust Speed Precip Events Conditions
12:00 AM 60.8 °F 26.6 °F 27% 29.95 in - WNW 5.8 mph - N/A   Clear
1:00 AM 59.0 °F 30.2 °F 34% 29.95 in - Variable 2.3 mph - N/A   Clear
2:00 AM 59.0 °F 32.0 °F 36% 29.95 in - West 3.5 mph - N/A   Clear
3:00 AM 59.0 °F 30.2 °F 34% 29.95 in - WNW 4.6 mph - N/A   Clear
4:00 AM 57.2 °F 32.0 °F 38% 29.95 in - WNW 4.6 mph - N/A   Clear
5:00 AM 57.2 °F 30.2 °F 36% 29.95 in - WNW 3.5 mph - N/A   Clear
6:00 AM 55.4 °F 32.0 °F 41% 29.98 in - WNW 3.5 mph - N/A   Clear
7:00 AM 55.4 °F 32.0 °F 41% 30.01 in 6.2 mi West 2.3 mph - N/A   Partly Cloudy
8:00 AM 64.4 °F 33.8 °F 32% 30.01 in 6.2 mi Calm Calm - N/A   Scattered Clouds
9:00 AM 71.6 °F 33.8 °F 25% 30.01 in 6.2 mi Variable 1.2 mph - N/A   Partly Cloudy
10:00 AM 75.2 °F 35.6 °F 24% 30.01 in 6.2 mi Variable 1.2 mph - N/A   Partly Cloudy
11:00 AM 75.2 °F 35.6 °F 24% 30.01 in 6.2 mi Variable 2.3 mph - N/A   Partly Cloudy
12:00 PM 75.2 °F 35.6 °F 24% 29.98 in 6.2 mi ESE 5.8 mph - N/A   Partly Cloudy
1:00 PM 75.2 °F 37.4 °F 25% 29.95 in 6.2 mi SE 6.9 mph - N/A   Partly Cloudy
2:00 PM 75.2 °F 37.4 °F 25% 29.92 in 6.2 mi ESE 8.1 mph - N/A   Partly Cloudy
3:00 PM 73.4 °F 37.4 °F 27% 29.92 in 6.2 mi SSE 6.9 mph - N/A   Partly Cloudy
4:00 PM 69.8 °F 37.4 °F 31% 29.92 in 6.2 mi SE 6.9 mph - N/A   Partly Cloudy
5:00 PM 66.2 °F 37.4 °F 35% 29.95 in 6.2 mi Variable 2.3 mph - N/A   Partly Cloudy
6:00 PM 64.4 °F 37.4 °F 37% 29.95 in 6.2 mi NNW 2.3 mph - N/A   Partly Cloudy
7:00 PM 62.6 °F 37.4 °F 39% 29.98 in 6.2 mi NNW 3.5 mph - N/A   Partly Cloudy
8:00 PM 62.6 °F 35.6 °F 37% 29.98 in 6.2 mi NNW 3.5 mph - N/A   Partly Cloudy
9:00 PM 59.0 °F 35.6 °F 42% 30.01 in 6.2 mi NW 4.6 mph - N/A   Partly Cloudy
10:00 PM 59.0 °F 35.6 °F 42% 29.98 in 6.2 mi West 2.3 mph - N/A   Scattered Clouds